Weather History for Bemidji, MN

Change the Weather History Date:

Thursday, October 13, 2011

  Actual Average Record
Temperature  
Mean Temperature 48 °F -  
Max Temperature 51 °F 53 °F 80 °F (1956)
Min Temperature 44 °F 35 °F 19 °F (1965)
Degree Days  
Heating Degree Days 18    
Moisture  
Dew Point 43 °F    
Average Humidity 86    
Maximum Humidity 100    
Minimum Humidity 54    
Precipitation  
Precipitation 0.02 in - - ()
Sea Level Pressure  
Sea Level Pressure 29.64 in    
Wind  
Wind Speed 11 mph (WNW)    
Max Wind Speed 22 mph    
Max Gust Speed 28 mph    
Visibility 8 miles    
Events Rain    
Averages and records for this station are not official NWS values.
T = Trace of Precipitation, MM = Missing Value Source: NWS Daily Summary

Daily Weather History Graph

Daily Weather History Graph

Search for Another Location

Airport:

Trip Planner

Search our weather history database for the weather conditions in past years. The results will help you decide how hot, cold, wet, or windy it might be!

Date:

Astronomy

Oct. 13, 2011 Rise Set
Actual Time 7:35 AM CDT 6:35 PM CDT
Civil Twilight 7:04 AM CDT 7:06 PM CDT
Nautical Twilight 6:28 AM CDT 7:42 PM CDT
Astronomical Twilight 5:52 AM CDT 8:18 PM CDT
Moon 6:59 PM CDT (10/13) 9:19 AM CDT (10/13)
Length of Visible Light 12h 02m
Length of Day
11h 00m
Full, 98% of the Moon is Illuminated
Oct 13
Full
Oct 19
Last Quarter
Oct 26
New
Nov 2
First Quarter
Nov 10
Full

Hourly Weather History & Observations

Time (CDT) Temp. Windchill Dew Point Humidity Pressure Visibility Wind Dir Wind Speed Gust Speed Precip Events Conditions
12:15 AM 50.0 °F - 48.2 °F 94% 29.63 in 10.0 mi NNW 5.8 mph - 0.01 in Rain Light Rain
12:35 AM 50.0 °F - 50.0 °F 100% 29.64 in 10.0 mi West 9.2 mph - 0.02 in   Light Drizzle
12:55 AM 50.0 °F - 50.0 °F 100% 29.64 in 10.0 mi WNW 10.4 mph - 0.02 in   Mostly Cloudy
1:15 AM 50.0 °F - 50.0 °F 100% 29.64 in 10.0 mi WNW 8.1 mph - N/A   Scattered Clouds
1:35 AM 50.0 °F - 48.2 °F 94% 29.64 in 10.0 mi West 9.2 mph - N/A   Clear
1:55 AM 50.0 °F - 48.2 °F 94% 29.64 in 10.0 mi WNW 6.9 mph - N/A   Clear
2:15 AM 50.0 °F - 48.2 °F 94% 29.65 in 10.0 mi West 10.4 mph - N/A   Clear
2:35 AM 50.0 °F - 50.0 °F 100% 29.65 in 10.0 mi WNW 10.4 mph - N/A   Scattered Clouds
2:55 AM 50.0 °F - 50.0 °F 100% 29.64 in 10.0 mi WNW 9.2 mph - N/A   Overcast
3:15 AM 50.0 °F - 50.0 °F 100% 29.64 in 10.0 mi WNW 11.5 mph - N/A   Overcast
3:35 AM 50.0 °F - 50.0 °F 100% 29.64 in 10.0 mi WNW 10.4 mph - N/A   Overcast
3:55 AM 50.0 °F - 48.2 °F 94% 29.65 in 10.0 mi WNW 11.5 mph - N/A   Overcast
4:15 AM 50.0 °F - 48.2 °F 94% 29.65 in 10.0 mi WNW 10.4 mph - N/A   Overcast
4:35 AM 48.2 °F - 48.2 °F 100% 29.64 in 10.0 mi NW 6.9 mph - N/A   Overcast
4:55 AM 48.2 °F - 48.2 °F 100% 29.65 in 7.0 mi NW 5.8 mph - N/A   Overcast
5:15 AM 48.2 °F - 48.2 °F 100% 29.64 in 4.0 mi NW 5.8 mph - N/A   Overcast
5:35 AM 48.2 °F - 48.2 °F 100% 29.64 in 3.0 mi WNW 11.5 mph - N/A   Light Drizzle
5:55 AM 46.4 °F 40.7 °F 46.4 °F 100% 29.64 in 5.0 mi WNW 12.7 mph - N/A   Overcast
6:15 AM 46.4 °F 40.4 °F 46.4 °F 100% 29.65 in 5.0 mi WNW 13.8 mph - N/A   Overcast
6:35 AM 46.4 °F 39.8 °F 46.4 °F 100% 29.65 in 5.0 mi WNW 16.1 mph - N/A   Overcast
6:55 AM 44.6 °F 39.7 °F 44.6 °F 100% 29.65 in 5.0 mi West 9.2 mph - N/A   Overcast
7:15 AM 44.6 °F 38.4 °F 44.6 °F 100% 29.65 in 7.0 mi West 12.7 mph - N/A   Overcast
7:35 AM 44.6 °F 38.8 °F 44.6 °F 100% 29.65 in 10.0 mi West 11.5 mph 19.6 mph N/A   Overcast
8:15 AM 44.6 °F 38.8 °F 44.6 °F 100% 29.65 in 10.0 mi West 11.5 mph - N/A   Overcast
8:35 AM 44.6 °F 38.4 °F 44.6 °F 100% 29.64 in 7.0 mi WNW 12.7 mph 23.0 mph N/A   Overcast
8:55 AM 44.6 °F 37.8 °F 44.6 °F 100% 29.64 in 7.0 mi WNW 15.0 mph - N/A   Overcast
9:15 AM 44.6 °F 37.8 °F 44.6 °F 100% 29.65 in 10.0 mi WNW 15.0 mph 18.4 mph N/A   Overcast
9:35 AM 44.6 °F 39.2 °F 44.6 °F 100% 29.65 in 10.0 mi WNW 10.4 mph - N/A   Overcast
9:55 AM 44.6 °F 37.8 °F 44.6 °F 100% 29.65 in 4.0 mi WNW 15.0 mph 19.6 mph N/A   Drizzle
10:15 AM 44.6 °F 37.2 °F 44.6 °F 100% 29.65 in 2.5 mi West 17.3 mph - N/A   Heavy Drizzle
10:35 AM 44.6 °F 37.2 °F 44.6 °F 100% 29.65 in 7.0 mi WNW 17.3 mph 23.0 mph N/A   Overcast
10:55 AM 44.6 °F 37.8 °F 44.6 °F 100% 29.65 in 7.0 mi WNW 15.0 mph 24.2 mph N/A   Overcast
11:15 AM 44.6 °F 39.2 °F 44.6 °F 100% 29.65 in 2.5 mi WNW 10.4 mph - N/A Rain Rain
11:35 AM 44.6 °F 36.9 °F 44.6 °F 100% 29.65 in 10.0 mi WNW 18.4 mph - N/A   Overcast
11:55 AM 44.6 °F 38.1 °F 44.6 °F 100% 29.65 in 10.0 mi WNW 13.8 mph - N/A   Overcast
12:15 PM 46.4 °F 40.1 °F 42.8 °F 87% 29.65 in 10.0 mi NW 15.0 mph 21.9 mph N/A   Mostly Cloudy
12:35 PM 46.4 °F 39.5 °F 42.8 °F 87% 29.64 in 10.0 mi WNW 17.3 mph - N/A   Mostly Cloudy
12:55 PM 50.0 °F - 41.0 °F 71% 29.64 in 10.0 mi WNW 18.4 mph 24.2 mph N/A   Mostly Cloudy
1:15 PM 50.0 °F - 39.2 °F 66% 29.64 in 10.0 mi WNW 18.4 mph 26.5 mph N/A   Mostly Cloudy
1:35 PM 51.8 °F - 39.2 °F 62% 29.64 in 10.0 mi WNW 20.7 mph 27.6 mph N/A   Mostly Cloudy
1:55 PM 50.0 °F - 37.4 °F 62% 29.63 in 10.0 mi WNW 18.4 mph 24.2 mph N/A   Mostly Cloudy
2:15 PM 51.8 °F - 37.4 °F 58% 29.63 in 7.0 mi WNW 20.7 mph 24.2 mph N/A   Overcast
2:35 PM 50.0 °F - 37.4 °F 62% 29.63 in 7.0 mi WNW 19.6 mph 26.5 mph N/A   Overcast
2:55 PM 50.0 °F - 37.4 °F 62% 29.63 in 7.0 mi NW 16.1 mph - N/A   Overcast
3:15 PM 50.0 °F - 37.4 °F 62% 29.63 in 10.0 mi NW 15.0 mph 19.6 mph N/A   Overcast
3:35 PM 50.0 °F - 37.4 °F 62% 29.63 in 7.0 mi NW 16.1 mph 21.9 mph N/A   Overcast
3:55 PM 50.0 °F - 37.4 °F 62% 29.63 in 7.0 mi NW 12.7 mph - N/A   Mostly Cloudy
4:15 PM 51.8 °F - 35.6 °F 54% 29.63 in 7.0 mi NNW 15.0 mph 24.2 mph N/A   Mostly Cloudy
4:35 PM 51.8 °F - 37.4 °F 58% 29.63 in 10.0 mi NW 17.3 mph 20.7 mph N/A   Overcast
4:55 PM 51.8 °F - 35.6 °F 54% 29.63 in 5.0 mi WNW 21.9 mph 26.5 mph N/A   Haze
5:15 PM 50.0 °F - 37.4 °F 62% 29.63 in 7.0 mi WNW 10.4 mph 13.8 mph N/A   Scattered Clouds
5:35 PM 50.0 °F - 35.6 °F 58% 29.63 in 10.0 mi WNW 16.1 mph 21.9 mph N/A   Scattered Clouds
5:55 PM 48.2 °F - 35.6 °F 62% 29.63 in 10.0 mi WNW 16.1 mph - N/A   Scattered Clouds
6:15 PM 46.4 °F 41.1 °F 35.6 °F 66% 29.63 in 10.0 mi WNW 11.5 mph 16.1 mph N/A   Clear
6:35 PM 46.4 °F 41.1 °F 35.6 °F 66% 29.63 in 10.0 mi WNW 11.5 mph - N/A   Clear
6:55 PM 44.6 °F 39.7 °F 35.6 °F 71% 29.64 in 10.0 mi WNW 9.2 mph - N/A   Clear
7:15 PM 44.6 °F 39.7 °F 35.6 °F 71% 29.64 in 10.0 mi WNW 9.2 mph - N/A   Clear
8:15 PM 41.0 °F 37.1 °F 35.6 °F 81% 29.64 in 10.0 mi WNW 5.8 mph - N/A   Clear
8:35 PM 41.0 °F 36.4 °F 35.6 °F 81% 29.64 in 10.0 mi WNW 6.9 mph - N/A   Clear
8:55 PM 37.4 °F 32.8 °F 33.8 °F 87% 29.64 in 10.0 mi WNW 5.8 mph - N/A   Clear
9:15 PM 37.4 °F 32.8 °F 33.8 °F 87% 29.64 in 10.0 mi West 5.8 mph - N/A   Clear
9:35 PM 39.2 °F 34.2 °F 35.6 °F 87% 29.65 in 10.0 mi WNW 6.9 mph - N/A   Clear
9:55 PM 39.2 °F 33.6 °F 35.6 °F 87% 29.65 in 10.0 mi West 8.1 mph - N/A   Clear
10:15 PM 37.4 °F 32.1 °F 35.6 °F 93% 29.65 in 10.0 mi WNW 6.9 mph - N/A   Clear
10:55 PM 37.4 °F 30.8 °F 35.6 °F 93% 29.65 in 10.0 mi WNW 9.2 mph - N/A   Clear
11:15 PM 37.4 °F 31.4 °F 33.8 °F 87% 29.65 in 10.0 mi WNW 8.1 mph - N/A   Clear
11:35 PM 35.6 °F 30.7 °F 33.8 °F 93% 29.65 in 10.0 mi WNW 5.8 mph - N/A   Scattered Clouds
11:55 PM 35.6 °F 29.9 °F 35.6 °F 100% 29.65 in 10.0 mi West 6.9 mph - N/A   Scattered Clouds